Location: Unspecified
(0.0000°N, 0.0000°E)
Time: 11:19:30
(UTC+00:00)

Vanguard 2 - Pass Details

Date: 24 November 2019
Orbit: 553 x 2938 km, 32.9° (Epoch: 14 December)

Event Time Altitude Azimuth Distance (km) Brightness Sun altitude
Rises 00:51:30 0° 221° (SW) 5,867 12.1 -64.1°
Reaches altitude 10° 00:55:21 10° 215° (SW) 5,125 11.7 -63.5°
Enters shadow 01:00:33 25° 201° (SSW) 4,279 11.2 -62.7°
Exits shadow 01:07:18 43° 169° (S) 3,644 10.8 -61.6°
Maximum altitude 01:10:28 45° 146° (SE) 3,597 10.8 -61.0°
Drops below altitude 10° 01:26:47 10° 79° (E) 5,551 12.0 -58.1°
Sets 01:31:04 0° 73° (ENE) 6,377 12.5 -57.3°
